Location: Berlin
(42.3812°N, 71.6370°W)
Time: 22:41:23
(UTC+00:00)

Cosmos 1420 Rocket - Visible Passes

Search period start: 15 February 2026 00:00
Search period end: 25 February 2026 00:00
Orbit: 751 x 775 km, 74.0° (Epoch: 15 February)

Date Brightness Start Highest point End Pass type
(mag) Time Alt. Az. Time Alt. Az. Time Alt. Az.
15 Feb 6.2 00:02:09 10° NNE 00:02:27 11° NNE 00:02:27 11° NNE visible
15 Feb 6.6 01:42:09 10° NNW 01:42:37 13° NNW 01:42:37 13° NNW visible
16 Feb 6.0 01:03:41 10° N 01:05:11 19° N 01:05:11 19° N visible
17 Feb 5.5 00:25:27 10° N 00:27:50 22° NNE 00:27:50 22° NNE visible
17 Feb 6.7 02:07:21 10° NW 02:08:01 13° NW 02:08:01 13° NW visible
17 Feb 5.5 23:47:31 10° N 23:50:32 19° NE 23:50:32 19° NE visible
18 Feb 5.8 01:28:27 10° NNW 01:30:44 26° NW 01:30:44 26° NW visible
18 Feb 5.8 23:10:22 10° NNE 23:12:12 12° NE 23:13:21 11° ENE visible
19 Feb 4.6 00:49:50 10° NNW 00:53:33 47° N 00:53:33 47° N visible
20 Feb 4.2 00:11:26 10° N 00:16:25 45° ENE 00:16:30 45° ENE visible
20 Feb 6.3 01:54:05 10° NW 01:56:43 20° WNW 01:56:43 20° WNW visible
20 Feb 4.9 23:33:15 10° N 23:37:40 27° ENE 23:39:37 22° E visible
21 Feb 5.1 01:14:54 10° NW 01:19:43 39° WSW 01:19:50 39° WSW visible
21 Feb 5.5 22:55:27 10° NNE 22:58:47 17° NE 23:02:07 10° E visible
22 Feb 4.2 00:36:06 10° NNW 00:41:17 70° WSW 00:43:11 39° S visible
22 Feb 3.9 23:57:32 10° NNW 00:02:44 68° ENE 00:06:49 17° SSE visible
23 Feb 6.7 01:41:15 10° WNW 01:44:02 15° W 01:46:50 10° SW visible
23 Feb 4.5 23:19:11 10° N 23:24:03 39° ENE 23:28:57 10° SE visible
24 Feb 6.0 01:01:32 10° NW 01:05:48 26° W 01:10:04 10° SSW visible
